Stations météo

Publicité
Le Havre/Octeville, France (7046): Température de l'air & dewpoint: 11.12.2017 03:00:00 - 17.12.2017 03:00:00 (CET)Le Havre/Octeville, France (7046): Vitesse du vent & gusts: 11.12.2017 03:00:00 - 17.12.2017 03:00:00 (CET)Le Havre/Octeville, France (7046): Direction du vent: 11.12.2017 03:00:00 - 17.12.2017 03:00:00 (CET)Le Havre/Octeville, France (7046): reduced air pressure: 11.12.2017 03:00:00 - 17.12.2017 03:00:00 (CET)Le Havre/Octeville, France (7046): visibility: 11.12.2017 03:00:00 - 17.12.2017 03:00:00 (CET)Le Havre/Octeville, France (7046): Quantités de précipitations: 11.12.2017 03:00:00 - 17.12.2017 03:00:00 (CET)
Date & Time tt [°C] td [°C] ff [km/h] ff [knt] fx [km/h] fx [knt] dd ppp [hPa] vv [km] rr [mm]
17.12.2017 03:00:00 6,3 2,7 20 11 34 18 NNW 1024,2 60 0,0
17.12.2017 02:00:00 6,4 3,2 24 13 35 19 NNW 1023,9 10 0,0
17.12.2017 01:00:00 6,6 2,9 21 11 35 19 NNW 1023,8 59 0,0
17.12.2017 00:00:00 6,8 3,4 24 13 42 23 NNW 1023,5 59 0,0
16.12.2017 23:00:00 7,0 3,4 25 14 39 21 NNW 1022,9 60 0,0
16.12.2017 22:00:00 7,4 3,4 28 15 46 25 NNW 1022,2 58 0,0
16.12.2017 21:00:00 6,5 4,3 22 12 54 29 WNW 1022,2 46 0,2
16.12.2017 20:00:00 6,6 3,9 19 11 53 28 WNW 1022,0 53 0,6
16.12.2017 19:00:00 7,3 3,2 23 12 41 22 WNW 1021,9 60 0,0
16.12.2017 18:00:00 6,7 2,6 20 11 31 17 WNW 1021,8 55 0,0
16.12.2017 17:00:00 6,0 0,7 20 11 33 18 NW 1021,8 60 0,0
16.12.2017 16:00:00 5,9 1,0 16 9 34 19 NW 1021,3 60 0,0
16.12.2017 15:00:00 6,1 0,0 21 11 34 18 NW 1020,8 56 0,0
16.12.2017 14:00:00 6,4 2,1 18 10 32 18 NNW 1020,4 59 0,0
16.12.2017 13:00:00 5,6 1,3 22 12 33 18 NNW 1020,0 10 0,0
16.12.2017 12:00:00 5,9 1,0 23 13 38 21 NNW 1019,6 56 0,0
16.12.2017 11:00:00 5,7 1,4 27 15 39 21 NNW 1019,4 54 0,0
16.12.2017 10:00:00 6,0 1,7 22 12 40 21 NNW 1018,1 48 0,0
16.12.2017 09:00:00 5,1 1,2 26 14 41 22 NNW 1017,5 60 0,0
16.12.2017 08:00:00 5,6 2,1 26 14 36 20 NNW 1016,4 57 0,0
16.12.2017 07:00:00 5,4 2,6 22 12 37 20 NNW 1015,5 10 0,0
16.12.2017 06:00:00 5,5 2,7 24 13 45 24 NNW 1014,8 10 0,0
16.12.2017 05:00:00 5,5 2,7 28 15 42 23 NNW 1014,1 10 0,0
16.12.2017 04:00:00 5,3 2,6 27 15 47 25 NNW 1013,4 36 0,0
16.12.2017 03:00:00 5,7 3,0 31 17 47 25 NNW 1012,5 10 0,0
16.12.2017 02:00:00 5,8 2,6 29 16 46 25 NNW 1011,6 34 0,0
16.12.2017 01:00:00 6,1 2,9 29 16 48 26 N 1010,5 10 0,0
16.12.2017 00:00:00 6,4 3,0 31 17 51 28 NNW 1009,9 42 0,0
15.12.2017 23:00:00 6,4 2,7 34 18 54 29 NNW 1008,8 10 0,0
15.12.2017 22:00:00 6,5 3,3 35 19 56 30 NNW 1007,9 42 0,0
15.12.2017 21:00:00 6,2 2,6 41 22 62 34 NNW 1007,1 39 0,0
15.12.2017 20:00:00 6,3 2,2 41 22 63 34 NNW 1005,8 10 0,0
15.12.2017 19:00:00 6,2 2,3 41 22 57 31 NNW 1004,7 45 0,0
15.12.2017 18:00:00 6,1 2,2 40 22 60 32 NNW 1003,6 18 0,2
15.12.2017 17:00:00 6,2 2,5 40 22 57 31 NNW 1002,5 47 0,0
15.12.2017 16:00:00 6,0 2,6 34 19 59 32 NNW 1001,4 45 0,0
15.12.2017 15:00:00 5,7 2,9 40 22 74 40 NNW 1000,1 32 0,0
15.12.2017 14:00:00 5,3 3,3 46 25 71 39 NNW 998,4 10 1,8
15.12.2017 13:00:00 5,4 3,9 44 24 64 34 N 996,9 6 0,4
15.12.2017 12:00:00 6,5 4,2 34 18 54 29 NNW 995,5 32 0,2
15.12.2017 11:00:00 6,2 4,2 22 12 65 35 NW 995,0 18 1,0
15.12.2017 10:00:00 6,4 3,7 33 18 59 32 WNW 994,5 35 0,8
15.12.2017 09:00:00 6,8 5,1 35 19 69 37 SW 994,3 16 1,3
15.12.2017 08:00:00 5,9 4,1 39 21 64 35 SW 994,3 10 3,0
15.12.2017 07:00:00 6,1 4,3 28 15 45 25 SSW 994,8 20 0,6
15.12.2017 06:00:00 6,2 3,9 28 15 61 33 SW 995,1 13 0,8
15.12.2017 05:00:00 7,5 1,6 31 17 56 30 W 995,3 44 0,0
15.12.2017 04:00:00 7,4 1,9 29 16 58 31 WNW 995,1 10 0,0
15.12.2017 03:00:00 7,2 3,1 35 19 66 36 WNW 994,2 10 0,0
15.12.2017 02:00:00 7,0 3,2 41 22 72 39 WNW 993,1 10 0,2
15.12.2017 01:00:00 7,2 3,8 42 23 67 36 WNW 992,1 10 2,2
15.12.2017 00:00:00 4,9 3,6 37 20 72 39 SSW 991,7 10 0,8
14.12.2017 23:00:00 5,3 3,5 35 19 55 30 SW 992,4 10 1,6
14.12.2017 22:00:00 5,2 3,0 23 12 40 22 SSW 992,8 37 0,0
14.12.2017 21:00:00 5,5 2,8 27 14 53 28 SW 993,3 38 0,0
14.12.2017 20:00:00 6,1 2,7 31 17 72 39 WSW 993,3 52 0,2
14.12.2017 19:00:00 6,2 3,2 31 17 77 42 WSW 992,9 50 0,2
14.12.2017 18:00:00 4,6 2,3 41 22 71 38 W 993,5 7 0,6
14.12.2017 17:00:00 5,6 3,6 30 16 53 29 SSW 993,4 50 0,0
14.12.2017 16:00:00 5,7 3,0 29 16 47 26 SSW 993,8 10 0,0
14.12.2017 15:00:00 4,5 3,5 16 9 65 35 SSW 995,3 31 2,6
14.12.2017 14:00:00 5,9 3,9 31 17 58 31 WSW 996,8 10 0,4
14.12.2017 13:00:00 6,1 4,3 29 16 61 33 SW 997,2 32 0,4
14.12.2017 12:00:00 6,2 4,2 32 17 66 36 SSW 998,1 23 0,0
14.12.2017 11:00:00 6,1 3,8 39 21 67 36 SSW 998,9 10 0,0
14.12.2017 10:00:00 6,1 3,9 32 18 56 30 SSW 999,0 28 0,0
14.12.2017 09:00:00 5,9 3,4 31 17 81 44 SSW 999,5 10 0,0
14.12.2017 08:00:00 6,6 1,9 55 30 77 42 SW 999,2 10 0,0
14.12.2017 07:00:00 6,0 2,8 41 22 76 41 SW 999,9 36 0,0
14.12.2017 06:00:00 6,7 2,6 44 24 62 34 WSW 1000,4 10 0,0
14.12.2017 05:00:00 7,2 1,7 46 25 71 38 WSW 1001,0 10 0,0
14.12.2017 04:00:00 7,2 2,7 41 22 90 49 WSW 1000,9 10 0,0
14.12.2017 03:00:00 7,9 0,8 55 30 92 50 W 1000,3 10 0,0
14.12.2017 02:00:00 7,8 0,7 54 29 98 53 W 999,8 10 0,0
14.12.2017 01:00:00 7,7 2,0 51 28 111 60 W 998,8 19 0,0
14.12.2017 00:00:00 7,4 2,7 65 35 105 57 W 997,5 10 0,6
13.12.2017 23:00:00 6,0 4,2 58 32 95 51 W 997,0 1,9 1,8
13.12.2017 22:00:00 8,3 5,2 41 22 60 32 WSW 996,3 20 0,0
13.12.2017 21:00:00 8,6 5,9 38 21 58 32 WSW 997,0 20 0,4
13.12.2017 20:00:00 8,7 6,1 29 15 56 30 W 997,3 33 0,0
13.12.2017 19:00:00 8,6 6,6 35 19 74 40 W 997,3 16 0,6
13.12.2017 18:00:00 9,4 8,5 37 20 59 32 SW 996,7 36 0,0
13.12.2017 17:00:00 9,0 7,8 34 18 55 30 SSW 997,0 10 0,2
13.12.2017 16:00:00 9,1 7,5 31 17 53 29 SSW 998,0 10 0,0
13.12.2017 15:00:00 9,5 6,9 34 18 52 28 SSW 999,6 10 0,0
13.12.2017 14:00:00 9,3 7,1 28 15 45 25 SSW 1001,0 19 0,0
13.12.2017 13:00:00 8,4 7,3 25 13 45 24 SSW 1002,5 17 0,0
13.12.2017 12:00:00 8,4 7,6 29 16 44 24 SW 1003,9 9 0,4
13.12.2017 11:00:00 8,1 7,2 26 14 42 23 SSW 1004,9 10 0,0
13.12.2017 10:00:00 8,3 7,4 24 13 39 21 SW 1005,0 15 0,2
13.12.2017 09:00:00 8,4 7,6 23 12 36 20 SW 1005,5 11 0,2
13.12.2017 08:00:00 8,2 7,6 29 16 48 26 SW 1005,7 30 0,0
13.12.2017 07:00:00 7,5 7,2 31 17 58 31 SSW 1005,5 10 0,6
13.12.2017 06:00:00 7,1 6,4 32 17 59 32 S 1005,7 4,3 0,0
13.12.2017 05:00:00 6,9 5,7 28 15 49 26 S 1006,4 10 0,2
13.12.2017 04:00:00 6,5 5,0 28 15 50 27 S 1007,5 6 0,4
13.12.2017 03:00:00 6,3 4,5 26 14 49 26 S 1008,9 10 0,2
13.12.2017 02:00:00 6,5 3,6 23 12 45 25 S 1009,8 52 0,0
13.12.2017 01:00:00 6,3 3,6 27 14 43 23 S 1011,1 32 0,0
13.12.2017 00:00:00 6,0 3,2 26 14 41 22 S 1011,8 39 0,0
12.12.2017 23:00:00 5,5 3,2 21 12 36 20 S 1012,7 29 0,0
12.12.2017 22:00:00 5,7 3,2 20 11 31 17 S 1013,4 30 0,0
12.12.2017 21:00:00 5,7 3,4 19 10 35 19 S 1013,1 28 0,0
12.12.2017 20:00:00 5,5 3,3 15 8 30 16 S 1013,5 10 0,0
12.12.2017 19:00:00 5,7 3,0 14 8 28 15 S 1013,6 58 0,0
12.12.2017 18:00:00 6,1 2,9 15 8 26 14 SSW 1013,1 10 0,0
12.12.2017 17:00:00 6,3 2,4 13 7 28 15 SSW 1013,2 60 0,0
12.12.2017 16:00:00 6,0 1,7 15 8 25 13 SSW 1012,7 60 0,0
12.12.2017 15:00:00 6,6 1,7 19 11 29 16 WSW 1012,2 37 0,0
12.12.2017 14:00:00 6,7 2,9 19 10 29 16 SSW 1011,8 43 0,0
12.12.2017 13:00:00 5,6 3,3 17 9 30 16 SW 1012,0 33 0,0
12.12.2017 12:00:00 5,2 2,7 17 9 24 13 SSW 1011,6 60 0,0
12.12.2017 11:00:00 5,6 2,6 15 8 24 13 SSW 1011,0 60 0,0
12.12.2017 10:00:00 4,6 0,4 10 5 23 13 WNW 1010,4 60 0,0
12.12.2017 09:00:00 5,2 0,9 13 7 36 19 WNW 1009,3 60 0,0
12.12.2017 08:00:00 4,7 1,2 18 10 32 17 NW 1008,1 10 0,0
12.12.2017 07:00:00 5,4 0,8 17 9 41 22 NW 1007,0 60 0,0
12.12.2017 06:00:00 5,1 0,7 18 10 41 22 WNW 1006,0 60 0,0
12.12.2017 05:00:00 5,1 0,7 23 12 39 21 WNW 1005,1 60 0,0
12.12.2017 04:00:00 4,6 -0,6 21 12 34 18 WNW 1004,1 60 0,0
12.12.2017 03:00:00 4,7 -1,5 18 10 39 21 WNW 1002,7 60 0,0
12.12.2017 02:00:00 4,4 -1,0 22 12 36 19 NW 1001,6 60 0,0
12.12.2017 01:00:00 4,7 -0,1 23 13 42 23 NW 1000,9 60 0,0
12.12.2017 00:00:00 5,0 0,2 29 16 50 27 NNW 999,8 60 0,0
11.12.2017 23:00:00 4,8 0,0 33 18 49 27 NNW 998,3 59 0,0
11.12.2017 22:00:00 4,8 0,6 31 17 54 29 NNW 996,1 10 0,0
11.12.2017 21:00:00 5,1 0,8 39 21 60 32 NNW 993,8 10 0,0
11.12.2017 20:00:00 5,4 2,0 39 21 68 37 NNW 991,5 10 0,0
11.12.2017 19:00:00 5,1 1,6 46 25 71 38 N 989,1 10 0,0
11.12.2017 18:00:00 5,0 2,2 46 25 78 42 NNW 987,0 55 0,0
11.12.2017 17:00:00 4,8 2,2 55 30 86 47 NNW 984,6 20 0,0
11.12.2017 16:00:00 4,5 2,7 54 29 89 48 N 982,1 18 1,2
11.12.2017 15:00:00 4,1 2,9 55 30 - - N 978,3 9 -
11.12.2017 14:00:00 3,7 2,2 61 33 96 52 N 974,3 10 1,0
11.12.2017 13:00:00 3,6 2,6 51 27 74 40 N 971,6 5 0,2
11.12.2017 12:00:00 4,7 4,0 38 21 63 34 N 968,8 4,9 0,6
11.12.2017 11:00:00 4,9 4,0 31 17 48 26 NNE 966,9 10 0,0
11.12.2017 10:00:00 4,8 4,1 15 8 64 35 ESE 966,7 10 2,8
11.12.2017 09:00:00 4,7 3,8 36 19 67 36 NE 966,9 4,6 3,0
11.12.2017 08:00:00 4,8 3,8 43 23 67 36 NE 967,0 4,0 2,0
11.12.2017 07:00:00 5,0 4,0 35 19 60 33 ENE 969,0 6 2,9
11.12.2017 06:00:00 5,1 3,8 42 23 65 35 NE 969,7 7 3,2
11.12.2017 05:00:00 5,5 4,8 24 13 39 21 ENE 972,0 8 1,8
11.12.2017 04:00:00 5,5 4,6 21 11 31 17 ENE 974,1 10 0,4
11.12.2017 03:00:00 5,8 4,1 14 8 21 11 E 977,3 23 0,0

tt = Température de l'air
td = dewpoint
ff = Vitesse du vent
fx = gusts
dd = Direction du vent
ppp = reduced air pressure
vv = visibility
rr = Quantités de précipitations

stations d'obs. à proximité